Location: Ward Pound Ridge Reservation
(41.2500°N, 73.6000°W)
Time: 09:52:16
(UTC-04:00)

ISS - Pass Details

Date: 07 October 2017
Orbit: 401 x 408 km, 51.6° (Epoch: 23 October)

Event Time Altitude Azimuth Distance (km) Brightness Sun altitude
Rises 20:42:03 0° 310° (NW) 2,330 1.1 -26.2°
Reaches altitude 10° 20:44:20 10° 323° (NW) 1,469 -0.3 -26.6°
Enters shadow 20:45:10 15° 332° (NNW) 1,195 -1.0 -26.8°
